GW3084 Weather Reports


Display with metric or nautical units.
time (UTC)temp
F
wind
direction
speed
MPH
gust
MPH
rain 1hr
in
rain 24hr
in
rain mn
in
humidity
%
barometer
mb
20260510111026 39 281 2.0 6.0 0.00 0.00 0.00 73 1016.9
20260510110042 38 284 1.0 4.0 0.00 0.00 0.00 75 1016.9
20260510105100 38 281 1.0 3.0 0.00 0.00 0.00 75 1016.7
20260510104036 38 277 1.0 3.0 0.00 0.00 0.00 76 1016.6
20260510103031 38 280 1.0 3.0 0.00 0.00 0.00 76 1016.4
20260510102047 38 273 2.0 6.0 0.00 0.00 0.00 77 1016.3
20260510101024 38 277 2.0 4.0 0.00 0.00 0.00 77 1016.2
20260510100020 38 274 2.0 3.0 0.00 0.00 0.00 78 1016.0
20260510095016 37 275 1.0 2.0 0.00 0.00 0.00 78 1015.9
20260510094032 37 281 1.0 2.0 0.00 0.00 0.00 77 1015.9
20260510093029 37 281 0.0 2.0 0.00 0.00 0.00 77 1015.7
20260510092046 37 278 1.0 3.0 0.00 0.00 0.00 78 1015.5
20260510091022 37 278 0.0 2.0 0.00 0.00 0.00 78 1015.5
20260510090018 37 282 0.0 2.0 0.00 0.00 0.00 78 1015.5
20260510085035 36 277 0.0 1.0 0.00 0.00 0.00 78 1015.3
20260510084031 36 277 0.0 1.0 0.00 0.00 0.00 78 1015.2
20260510083027 37 283 0.0 1.0 0.00 0.00 0.00 77 1015.2
20260510082024 37 277 0.0 1.0 0.00 0.00 0.00 77 1015.0
20260510081020 37 285 0.0 1.0 0.00 0.00 0.00 77 1014.8
20260510080017 37 275 0.0 1.0 0.00 0.00 0.00 77 1014.6
20260510075034 37 276 0.0 1.0 0.00 0.00 0.00 76 1014.7
20260510074030 37 278 0.0 1.0 0.00 0.00 0.00 75 1014.5
20260510073026 38 0.0 0.0 0.00 0.00 0.00 75 1014.5
20260510072044 38 280 0.0 1.0 0.00 0.00 0.00 74 1014.5
20260510071040 39 286 0.0 1.0 0.00 0.00 0.00 74 1014.3
20260510070016 39 0.0 0.0 0.00 0.00 0.00 73 1014.2
20260510065032 39 0.0 0.0 0.00 0.00 0.00 72 1014.3
20260510064029 40 323 0.0 1.0 0.00 0.00 0.00 72 1014.3
20260510063025 39 327 0.0 3.0 0.00 0.00 0.00 73 1014.1
20260510062022 39 335 0.0 2.0 0.00 0.00 0.00 73 1013.9
20260510061040 40 318 0.0 1.0 0.00 0.00 0.00 72 1013.8
20260510060035 40 319 0.0 1.0 0.00 0.00 0.00 72 1013.7
20260510055031 40 345 0.0 2.0 0.00 0.00 0.00 73 1013.6
20260510054029 40 307 0.0 1.0 0.00 0.00 0.00 73 1013.5
20260510053024 40 308 0.0 1.0 0.00 0.00 0.00 72 1013.5
20260510052021 41 320 0.0 2.0 0.00 0.00 0.00 72 1013.4
20260510051017 41 333 1.0 3.0 0.00 0.00 0.00 73 1013.3
20260510050035 41 329 1.0 2.0 0.00 0.00 0.00 73 1013.3
20260510045031 41 342 1.0 3.0 0.00 0.00 0.00 73 1013.2
20260510044109 42 334 1.0 3.0 0.00 0.00 0.00 72 1013.2
20260510043024 42 357 1.0 4.0 0.00 0.00 0.00 72 1013.1
20260510042022 42 351 1.0 3.0 0.00 0.00 0.00 72 1013.1
20260510041038 42 11 1.0 4.0 0.00 0.00 0.00 72 1013.0
20260510040034 42 349 1.0 4.0 0.00 0.00 0.00 72 1012.8
20260510035052 43 338 2.0 7.0 0.00 0.00 0.00 72 1012.8
20260510034027 43 355 3.0 9.0 0.00 0.00 0.00 72 1012.8
20260510033024 43 342 3.0 7.0 0.00 0.00 0.00 74 1012.7
20260510032020 43 348 3.0 8.0 0.00 0.00 0.00 74 1012.7
20260510031017 43 349 3.0 9.0 0.00 0.00 0.00 73 1012.5
20260510030034 44 343 3.0 9.0 0.00 0.00 0.00 72 1012.2
20260510025030 44 345 2.0 11.0 0.00 0.00 0.00 72 1011.9
20260510024027 44 349 3.0 8.0 0.00 0.00 0.00 71 1011.7
20260510023022 44 344 2.0 7.0 0.00 0.00 0.00 68 1011.4
20260510022019 45 355 2.0 7.0 0.00 0.00 0.00 66 1011.0
20260510021017 46 7 3.0 9.0 0.00 0.00 0.00 63 1010.7
20260510020032 47 360 2.0 10.0 0.00 0.00 0.00 58 1010.2
20260510015049 49 19 3.0 11.0 0.00 0.00 0.00 53 1010.0
20260510014046 52 11 4.0 16.0 0.00 0.00 0.00 46 1009.7
20260510013022 56 12 3.0 11.0 0.00 0.00 0.00 35 1009.2
20260510012039 56 324 2.0 8.0 0.00 0.00 0.00 33 1008.7
20260510011037 57 318 2.0 6.0 0.00 0.00 0.00 33 1008.3
20260510010033 57 314 2.0 8.0 0.00 0.00 0.00 32 1008.2
20260510005029 58 326 2.0 9.0 0.00 0.00 0.00 32 1008.0
20260510004026 59 325 3.0 11.0 0.00 0.00 0.00 32 1007.8
20260510003022 59 329 3.0 11.0 0.00 0.00 0.00 31 1007.7
20260510002019 60 324 3.0 13.0 0.00 0.00 0.00 30 1007.5
20260510001036 61 307 3.0 11.0 0.00 0.00 0.00 30 1007.3
20260510000052 61 312 4.0 13.0 0.00 0.00 0.00 30 1007.2
20260509235029 61 318 5.0 15.0 0.00 0.00 0.00 30 1007.0
20260509234026 61 322 4.0 15.0 0.00 0.00 0.00 31 1006.9
20260509233022 60 310 3.0 11.0 0.00 0.00 0.00 31 1006.9
20260509232019 61 320 6.0 17.0 0.00 0.00 0.00 31 1006.7
20260509231017 62 314 5.0 14.0 0.00 0.00 0.00 31 1006.5
20260509230052 62 319 4.0 11.0 0.00 0.00 0.00 31 1006.3
20260509225029 64 324 7.0 23.0 0.00 0.00 0.00 30 1006.2
20260509224025 65 296 6.0 17.0 0.00 0.00 0.00 28 1005.9
20260509223022 65 293 7.0 21.0 0.00 0.00 0.00 28 1005.8
20260509222039 66 295 5.0 15.0 0.00 0.00 0.00 30 1005.7
20260509221035 65 297 5.0 14.0 0.00 0.00 0.00 32 1005.6
20260509220033 65 309 6.0 17.0 0.00 0.00 0.00 32 1005.4
20260509215028 63 313 5.0 16.0 0.00 0.00 0.00 34 1005.5
20260509214025 63 320 6.0 21.0 0.00 0.00 0.00 34 1005.2
20260509213022 64 311 6.0 17.0 0.00 0.00 0.00 35 1005.1
20260509212038 65 304 5.0 21.0 0.00 0.00 0.00 35 1005.2
20260509211056 64 315 7.0 24.0 0.00 0.00 0.00 34 1005.0
20260509210032 66 310 6.0 21.0 0.00 0.00 0.00 32 1004.8
20260509205028 65 294 6.0 18.0 0.00 0.00 0.00 34 1004.6
20260509204025 66 298 6.0 19.0 0.00 0.00 0.00 35 1004.5
20260509203022 67 282 6.0 14.0 0.00 0.00 0.00 35 1004.4
20260509202018 66 297 5.0 16.0 0.00 0.00 0.00 36 1004.2
20260509201035 66 306 7.0 24.0 0.00 0.00 0.00 37 1004.2
20260509200031 64 305 7.0 18.0 0.00 0.00 0.00 38 1004.0
20260509195030 65 308 7.0 25.0 0.00 0.00 0.00 40 1003.9
20260509194025 65 314 5.0 18.0 0.00 0.00 0.00 41 1003.9
20260509193022 66 317 6.0 15.0 0.00 0.00 0.00 41 1003.9
20260509192059 66 322 7.0 18.0 0.00 0.00 0.00 40 1003.8
20260509191035 68 310 7.0 18.0 0.00 0.00 0.00 35 1003.6
20260509190049 68 295 6.0 17.0 0.00 0.00 0.00 33 1003.3
20260509185046 68 294 6.0 16.0 0.00 0.00 0.00 32 1003.1
20260509184022 67 283 5.0 25.0 0.00 0.00 0.00 31 1002.9
20260509183019 68 296 5.0 16.0 0.00 0.00 0.00 31 1002.9
20260509182016 68 295 5.0 15.0 0.00 0.00 0.00 31 1002.9
20260509181032 68 286 5.0 11.0 0.00 0.00 0.00 31 1002.9
20260509180029 67 296 3.0 11.0 0.00 0.00 0.00 33 1002.9
20260509174837 66 359 8.0 10.0 0.00 0.00 0.00 33 1002.8
20260509174020 66 285 5.0 14.0 0.00 0.00 0.00 32 1002.9
20260509173016 64 286 4.0 11.0 0.00 0.00 0.00 35 1002.9
20260509172033 64 260 5.0 11.0 0.00 0.00 0.00 35 1002.8
20260509171030 64 272 4.0 13.0 0.00 0.00 0.00 34 1002.8
20260509170027 64 259 5.0 14.0 0.00 0.00 0.00 35 1002.8
20260509165043 64 286 4.0 13.0 0.00 0.00 0.00 36 1002.8
20260509164019 63 272 4.0 9.0 0.00 0.00 0.00 37 1002.8
20260509163016 63 307 3.0 8.0 0.00 0.00 0.00 37 1002.8
20260509162033 63 312 3.0 11.0 0.00 0.00 0.00 37 1002.8
20260509161029 62 308 3.0 8.0 0.00 0.00 0.00 38 1002.7
20260509160026 62 301 3.0 13.0 0.00 0.00 0.00 38 1002.8
20260509155042 61 316 3.0 8.0 0.00 0.00 0.00 39 1002.7
20260509154020 61 278 4.0 17.0 0.00 0.00 0.00 38 1002.5
20260509153015 62 307 4.0 15.0 0.00 0.00 0.00 38 1002.3
20260509152032 61 306 5.0 11.0 0.00 0.00 0.00 39 1002.3
20260509151029 58 321 3.0 9.0 0.00 0.00 0.00 41 1002.3
20260509150025 58 312 3.0 8.0 0.00 0.00 0.00 43 1002.2
20260509145018 57 317 3.0 8.0 0.00 0.00 0.00 44 1002.1
20260509144033 56 312 3.0 9.0 0.00 0.00 0.00 45 1002.1
20260509143025 55 301 2.0 8.0 0.00 0.00 0.00 46 1002.2
20260509142022 55 295 2.0 7.0 0.00 0.00 0.00 46 1002.4
20260509141019 56 282 3.0 8.0 0.00 0.00 0.00 46 1002.3
20260509140055 56 285 3.0 7.0 0.00 0.00 0.00 46 1002.1
20260509135032 56 278 3.0 9.0 0.00 0.00 0.00 45 1002.0
20260509134028 56 280 3.0 10.0 0.00 0.00 0.00 46 1002.0
20260509133044 56 270 4.0 9.0 0.00 0.00 0.00 45 1001.8
20260509132041 57 280 3.0 10.0 0.00 0.00 0.00 45 1001.3
20260509131018 56 271 4.0 14.0 0.00 0.00 0.00 45 1001.1
20260509130034 56 273 4.0 9.0 0.00 0.00 0.00 46 1000.8
20260509125031 56 292 3.0 13.0 0.00 0.00 0.00 47 1000.9
20260509124027 56 278 4.0 10.0 0.00 0.00 0.00 48 1000.7
20260509123024 56 281 3.0 9.0 0.00 0.00 0.00 48 1000.4
20260509122020 56 282 5.0 13.0 0.00 0.00 0.00 48 1000.3
20260509121017 56 273 4.0 11.0 0.00 0.00 0.00 50 1000.2
20260509120033 56 282 5.0 11.0 0.00 0.00 0.00 51 1000.0
20260509115030 56 281 5.0 14.0 0.00 0.00 0.00 54 1000.1
20260509114048 55 283 5.0 10.0 0.00 0.00 0.00 58 999.9
20260509113023 55 280 4.0 11.0 0.00 0.00 0.00 60 999.8
20260509112040 55 271 5.0 11.0 0.00 0.00 0.00 63 999.6